Content
SEND FEEDBACK

Daily
Averages
Monthly
Summary
United States of America

ROGERS, NORTH DAKOTA


Home > North America > United States > North Dakota
Elevation: 1403 feet     Latitude: 46 58N     Longitude: 098 02W

WEATHER
 
SELECT A DAY
Number of Records: 73,035;   Date Range: 12/15/10 - 12/17/14
 
SHARE

PRINT THIS DATA

[ ← Previous Day ]
WEATHER ALMANAC - JULY 20, 2014
[ Next Day → ]
[ °C ]   °F
Weather ElementAverageHighLow
Temperature77.5 °F91.4 °F (3:55 pm)66.2 °F (9:55 am)
Dewpoint69.5 °F75.2 °F (12:35 pm)64.4 °F (11:35 pm)
Humidity80 %100 % (1:15 am)41 % (2:55 pm)
Barometer29.70 in29.78 in (9:35 pm)29.66 in (4:55 pm)
Wind Speed8.9 mph16.1 mph (9:55 am)
Wind Gust20.7 mph (11:15 am)
Weather ElementAverage
Visibility9.5 mi
Wind DirectionSSW (195 °)

Weather ElementTotal
Precipitation---
Cooling Degree Days13.8 (Base 65)
Growing Degree Days28.8 (Base 50)
Averaged from 72 records on July 20, 2014
WEATHER CONDITIONS BREAKOUT
WIND DIRECTION BREAKOUT
WEATHER BY HOUR - JULY 20, 2014
[ °C ]   °F
Local TimeTemperatureDewpointHumidityBarometerVisibilityWind DirectionWind SpeedGust SpeedPrecipitationEventsConditions
12:15 AM68.0 °F66.2 °F94 %29.76 in10.0 miSSE (160°)10.4 mphOvercast
12:35 AM68.0 °F68.0 °F100 %29.76 in10.0 miSouth (170°)10.4 mphMostly Cloudy
12:55 AM68.0 °F68.0 °F100 %29.75 in10.0 miSouth (180°)9.2 mphPartly Cloudy
1:15 AM66.2 °F66.2 °F100 %29.75 in10.0 miSouth (180°)10.4 mphScattered Clouds
1:35 AM66.2 °F66.2 °F100 %29.74 in10.0 miSouth (180°)10.4 mphScattered Clouds
1:55 AM66.2 °F66.2 °F100 %29.74 in10.0 miSouth (170°)9.2 mphScattered Clouds
2:15 AM66.2 °F66.2 °F100 %29.73 in10.0 miSouth (170°)8.1 mphScattered Clouds
2:35 AM66.2 °F66.2 °F100 %29.72 in10.0 miSouth (170°)10.4 mphPartly Cloudy
2:55 AM66.2 °F66.2 °F100 %29.72 in10.0 miSouth (170°)10.4 mphClear
3:15 AM68.0 °F68.0 °F100 %29.71 in10.0 miSouth (180°)10.4 mphClear
3:35 AM68.0 °F68.0 °F100 %29.70 in10.0 miSouth (180°)11.5 mphScattered Clouds
3:55 AM68.0 °F68.0 °F100 %29.70 in10.0 miSouth (180°)12.7 mphMostly Cloudy
4:15 AM68.0 °F68.0 °F100 %29.69 in10.0 miSouth (170°)11.5 mphMostly Cloudy
4:35 AM68.0 °F68.0 °F100 %29.68 in10.0 miSouth (170°)12.7 mphOvercast
4:55 AM68.0 °F68.0 °F100 %29.68 in10.0 miSouth (180°)11.5 mphMostly Cloudy
5:15 AM68.0 °F68.0 °F100 %29.68 in9.0 miSouth (180°)11.5 mph18.4 mphClear
5:35 AM66.2 °F66.2 °F100 %29.67 in8.0 miSouth (180°)10.4 mphClear
5:55 AM66.2 °F66.2 °F100 %29.67 in5.0 miSouth (180°)10.4 mphPartly Cloudy
6:15 AM66.2 °F66.2 °F100 %29.67 in4.0 miSouth (180°)10.4 mphPartly Cloudy
6:35 AM66.2 °F66.2 °F100 %29.67 in4.0 miSouth (180°)9.2 mphMostly Cloudy
6:55 AM66.2 °F66.2 °F100 %29.66 in4.0 miSouth (180°)12.7 mphOvercast
7:15 AM68.0 °F68.0 °F100 %29.67 in5.0 miSSW (200°)10.4 mphOvercast
7:35 AM68.0 °F68.0 °F100 %29.66 in6.0 miSSW (200°)15.0 mphOvercast
7:55 AM69.8 °F69.8 °F100 %29.67 in8.0 miSSW (200°)12.7 mphOvercast
8:15 AM71.6 °F71.6 °F100 %29.67 in9.0 miSSW (200°)12.7 mph20.7 mphOvercast
8:35 AM71.6 °F71.6 °F100 %29.67 in9.0 miSSW (200°)16.1 mphMostly Cloudy
8:55 AM73.4 °F73.4 °F100 %29.67 in10.0 miSSW (210°)15.0 mphScattered Clouds
9:15 AM73.4 °F73.4 °F100 %29.67 in10.0 miSSW (200°)12.7 mph17.3 mphClear
9:35 AM75.2 °F75.2 °F100 %29.67 in10.0 miSSW (210°)15.0 mphClear
9:55 AM75.2 °F75.2 °F100 %29.68 in10.0 miSW (220°)16.1 mph20.7 mphClear
10:15 AM77.0 °F75.2 °F94 %29.67 in10.0 miSSW (210°)13.8 mph17.3 mphClear
10:35 AM77.0 °F75.2 °F94 %29.67 in10.0 miSW (220°)12.7 mph17.3 mphClear
10:55 AM80.6 °F75.2 °F84 %29.66 in10.0 miSW (220°)12.7 mphClear
11:15 AM80.6 °F75.2 °F84 %29.66 in10.0 miSSW (210°)13.8 mphClear
11:35 AM82.4 °F75.2 °F79 %29.67 in10.0 miSW (230°)11.5 mph19.6 mphClear
11:55 AM82.4 °F75.2 °F79 %29.67 in10.0 miWSW (240°)12.7 mphClear
12:15 PM82.4 °F73.4 °F74 %29.68 in10.0 miWSW (250°)11.5 mphClear
12:35 PM84.2 °F73.4 °F70 %29.68 in10.0 miWest (260°)10.4 mphClear
12:55 PM84.2 °F73.4 °F70 %29.68 in10.0 miWSW (250°)11.5 mphClear
1:15 PM86.0 °F73.4 °F66 %29.67 in10.0 miWSW (250°)9.2 mphClear
1:35 PM86.0 °F71.6 °F62 %29.67 in10.0 miWest (270°)9.2 mphClear
1:55 PM87.8 °F71.6 °F58 %29.67 in10.0 miWest (270°)11.5 mphClear
2:15 PM87.8 °F69.8 °F55 %29.68 in10.0 miWest (270°)9.2 mph
2:35 PM87.8 °F69.8 °F55 %29.69 in10.0 miWSW (250°)10.4 mph
2:55 PM89.6 °F68.0 °F49 %29.69 in10.0 miWest (270°)10.4 mph
3:15 PM89.6 °F68.0 °F49 %29.69 in10.0 miWest (260°)6.9 mph
3:35 PM89.6 °F66.2 °F46 %29.69 in10.0 miWest (270°)10.4 mph
3:55 PM91.4 °F66.2 °F43 %29.69 in10.0 miWNW (300°)6.9 mph
4:15 PM91.4 °F64.4 °F41 %29.69 in10.0 miWSW (250°)9.2 mph
4:35 PM91.4 °F66.2 °F43 %29.69 in10.0 miWSW (250°)10.4 mph
4:55 PM91.4 °F64.4 °F41 %29.69 in10.0 miWSW (250°)10.4 mph
5:15 PM91.4 °F64.4 °F41 %29.70 in10.0 miWSW (250°)9.2 mph
5:35 PM89.6 °F66.2 °F46 %29.70 in10.0 miWest (270°)6.9 mph
5:55 PM89.6 °F66.2 °F46 %29.70 in10.0 miWest (260°)6.9 mphClear
6:15 PM91.4 °F66.2 °F43 %29.70 in10.0 miWSW (240°)4.6 mphClear
6:35 PM89.6 °F66.2 °F46 %29.70 in10.0 miWSW (250°)3.5 mphClear
6:55 PM89.6 °F68.0 °F49 %29.70 in10.0 miWSW (250°)3.5 mphClear
7:15 PM89.6 °F69.8 °F52 %29.71 in10.0 miWSW (250°)4.6 mphClear
7:35 PM87.8 °F71.6 °F58 %29.71 in10.0 miWSW (240°)4.6 mphClear
7:55 PM86.0 °F73.4 °F66 %29.72 in10.0 miCalmClear
8:15 PM86.0 °F75.2 °F70 %29.72 in10.0 miCalmClear
8:35 PM82.4 °F75.2 °F79 %29.72 in10.0 miNW (310°)3.5 mphClear
8:55 PM80.6 °F71.6 °F74 %29.73 in10.0 miNW (320°)3.5 mphClear
9:15 PM77.0 °F68.0 °F74 %29.74 in10.0 miCalmClear
9:35 PM78.8 °F68.0 °F69 %29.75 in10.0 miNNE (30°)3.5 mphClear
9:55 PM77.0 °F71.6 °F83 %29.76 in10.0 miCalmClear
10:15 PM77.0 °F71.6 °F83 %29.76 in10.0 miCalmClear
10:35 PM71.6 °F68.0 °F88 %29.77 in10.0 miCalmClear
10:55 PM73.4 °F66.2 °F78 %29.77 in10.0 miCalmClear
11:15 PM71.6 °F69.8 °F94 %29.77 in10.0 miSW (220°)3.5 mphClear
11:35 PM71.6 °F69.8 °F94 %29.78 in10.0 miSouth (180°)3.5 mphClear
11:55 PM71.6 °F71.6 °F100 %29.77 in10.0 miSouth (190°)4.6 mphClear
Hourly data recorded from KBAC, located miles away from Rogers, North Dakota







STORIES FROM OUR PARTNERS